{"data":{"norad_id":43609,"intl_designator":"2018-068A","name":"HAIYANG-1C","alt_names":[],"object_type":"PAYLOAD","status":"ACTIVE","operator":null,"country":"PRC","launch_date":"2018-09-07","launch_site_code":"TAISC","launch_vehicle":null,"mission":null,"orbit_class":"UNKNOWN","rcs_meters":null,"size_class":null,"mass_kg":null,"dimensions":null,"purposes":[],"wikipedia_slug":null,"has_3d_model":false,"image_url":null,"decayed_at":null,"tle_current":{"epoch":"2026-05-25T03:39:17.749728Z","epoch_age_seconds":62720,"freshness":"FRESH","line1":"1 43609U 18068A   26145.15228877  .00000001  00000+0  15698-4 0  9996","line2":"2 43609  98.5190 217.7923 0011319 157.2554 202.9134 14.34170449403781","mean_motion":14.34170449,"eccentricity":0.0011319,"inclination_deg":98.519,"raan_deg":217.7923,"arg_perigee_deg":157.2554,"mean_anomaly_deg":202.9134,"bstar":1.5698e-5,"rev_number":40378,"period_min":100.4064754649,"perigee_km":769.72465980337,"apogee_km":785.92432543036,"semimajor_km":7155.9614926169,"source":"CELESTRAK","updated_at":"2026-05-25T13:37:55.859613Z"}}}